Epoch 2024 Oct. 17.0 TT = JDT 2460600.5
T 2024 June 15.67043 TT Rudenko
q 1.7497600 (2000.0) P Q
n 0.15376201 Peri. 230.58209 +0.69510570 +0.68453997
a 3.4506694 Node 84.98258 -0.57305907 +0.71205815
e 0.4929216 Incl. 12.73635 -0.43408682 +0.15613525
P 6.41
From 45 observations 2024 June 3-Oct. 9, mean residual 0".2.